Date String (YYYY-MM-DD hh:mm:ss) UTC,Instrument flags,Ambient pressure (hPa),Sample flow (lpm),Bypass flow (lpm),Sample temperature (°C),Ambient temperature (°C),ASC tube jacket temperature (°C),LED temperature (°C),Box temperature (°C),Sample RH (%),Span deviation,Mass concentration (μg/m³),Mass concentration (μg/m³),Mass concentration (μg/m³)
DateTimeUTC,F1_M11,P_M11,Q1_M11,Q2_M11,T1_M11,T2_M11,T3_M11,T4_M11,T5_M11,U1_M11,ZSPAN_M11,X0_M11,X2_M11,X1_M11
2023-05-04 23:00:00,,0823.6,5.01,0.00,30.1,28.5,00.0,38.5,31.6,15.9,0000.0,0008.65,0003.16,0001.67
2023-05-04 23:01:00,,0823.6,5.01,0.00,30.1,28.5,00.0,38.5,31.6,16.0,0000.0,0009.11,0003.13,0001.62
2023-05-04 23:02:00,,0823.6,4.99,0.00,30.1,28.5,00.0,38.5,31.6,16.1,0000.0,0008.57,0003.11,0001.57
2023-05-04 23:03:00,,0823.4,5.00,0.00,30.0,28.4,00.0,38.5,31.5,16.3,0000.0,0008.01,0003.15,0001.57
2023-05-04 23:04:00,,0823.4,5.00,0.00,30.0,28.4,00.0,38.5,31.5,16.4,0000.0,0007.97,0003.08,0001.55
2023-05-04 23:05:00,,0823.6,5.00,0.00,30.0,28.4,00.0,38.5,31.5,16.6,0000.0,0008.74,0003.06,0001.52
2023-05-04 23:06:00,,0823.7,5.01,0.00,30.0,28.4,00.0,38.5,31.4,16.9,0000.0,0008.78,0003.00,0001.51
2023-05-04 23:07:00,,0823.8,5.00,0.00,30.0,28.4,00.0,38.5,31.4,17.1,0000.0,0008.76,0003.01,0001.50
2023-05-04 23:08:00,,0823.8,4.99,0.00,30.0,28.4,00.0,38.5,31.4,17.2,0000.0,0008.64,0002.95,0001.47
2023-05-04 23:09:00,,0823.8,5.00,0.00,30.0,28.4,00.0,38.5,31.5,17.3,0000.0,0008.57,0002.89,0001.43
2023-05-04 23:10:00,,0823.8,5.00,0.00,30.0,28.4,00.0,38.5,31.5,17.5,0000.0,0008.54,0002.81,0001.41
2023-05-04 23:11:00,,0823.8,5.01,0.00,30.0,28.4,00.0,38.5,31.5,17.7,0000.0,0008.61,0002.79,0001.40
2023-05-04 23:12:00,,0823.9,4.99,0.00,30.0,28.3,00.0,38.5,31.5,17.7,0000.0,0008.19,0002.78,0001.39
2023-05-04 23:13:00,,0823.9,4.99,0.00,30.0,28.3,00.0,38.5,31.5,17.8,0000.0,0007.66,0002.68,0001.39
2023-05-04 23:14:00,,0823.8,5.01,0.00,30.0,28.3,00.0,38.5,31.5,18.0,0000.0,0007.54,0002.59,0001.38
2023-05-04 23:15:00,,0823.8,5.01,0.00,30.0,28.3,00.0,38.5,31.5,17.9,0000.0,0007.45,0002.58,0001.37
2023-05-04 23:16:00,,0823.7,4.99,0.00,30.0,28.3,00.0,38.5,31.4,17.9,0000.0,0006.15,0002.58,0001.38
2023-05-04 23:17:00,,0823.7,4.99,0.00,30.0,28.3,00.0,38.5,31.5,17.8,0000.0,0005.39,0002.58,0001.38
2023-05-04 23:18:00,,0823.7,5.00,0.00,30.0,28.3,00.0,38.5,31.5,17.7,0000.0,0005.20,0002.53,0001.38
2023-05-04 23:19:00,,0823.6,5.01,0.00,30.0,28.3,00.0,38.5,31.5,17.7,0000.0,0005.33,0002.56,0001.40
2023-05-04 23:20:00,,0823.7,5.01,0.00,30.0,28.3,00.0,38.5,31.5,17.8,0000.0,0005.50,0002.60,0001.42
2023-05-04 23:21:00,,0823.6,4.98,0.00,30.0,28.3,00.0,38.5,31.5,17.9,0000.0,0005.49,0002.67,0001.43
2023-05-04 23:22:00,,0823.6,5.01,0.00,30.0,28.3,00.0,38.4,31.5,17.6,0000.0,0005.44,0002.76,0001.45
2023-05-04 23:23:00,,0823.6,5.01,0.00,30.0,28.3,00.0,38.5,31.5,17.7,0000.0,0005.60,0002.83,0001.47
2023-05-04 23:24:00,,0823.7,4.99,0.00,30.0,28.2,00.0,38.4,31.5,17.6,0000.0,0005.71,0002.86,0001.50
2023-05-04 23:25:00,,0823.7,4.99,0.00,30.0,28.2,00.0,38.4,31.5,17.6,0000.0,0005.74,0002.90,0001.53
2023-05-04 23:26:00,,0823.7,5.01,0.00,30.0,28.2,00.0,38.4,31.5,17.5,0000.0,0005.76,0002.91,0001.55
2023-05-04 23:27:00,,0823.6,5.01,0.00,30.0,28.2,00.0,38.4,31.5,17.5,0000.0,0005.78,0002.92,0001.58
2023-05-04 23:28:00,,0823.6,5.00,0.00,30.0,28.2,00.0,38.4,31.5,17.2,0000.0,0005.74,0002.91,0001.58
2023-05-04 23:29:00,,0823.6,5.00,0.00,30.0,28.2,00.0,38.4,31.5,17.4,0000.0,0005.82,0002.95,0001.57
2023-05-04 23:30:00,,0823.7,5.00,0.00,30.0,28.2,00.0,38.4,31.5,17.3,0000.0,0005.96,0002.97,0001.57
2023-05-04 23:31:00,,0823.7,5.00,0.00,30.0,28.2,00.0,38.4,31.5,17.2,0000.0,0005.91,0002.95,0001.56
2023-05-04 23:32:00,,0823.6,5.00,0.00,30.0,28.2,00.0,38.4,31.5,17.5,0000.0,0005.84,0002.90,0001.55
2023-05-04 23:33:00,,0823.5,4.99,0.00,30.0,28.2,00.0,38.4,31.5,18.0,0000.0,0005.79,0002.81,0001.56
2023-05-04 23:34:00,,0823.4,5.01,0.00,30.0,28.2,00.0,38.4,31.5,18.0,0000.0,0006.71,0002.73,0001.56
2023-05-04 23:35:00,,0823.3,5.01,0.00,30.0,28.2,00.0,38.4,31.4,18.0,0000.0,0006.72,0002.76,0001.57
2023-05-04 23:36:00,,0823.4,5.00,0.00,30.0,28.2,00.0,38.4,31.4,17.9,0000.0,0006.83,0002.78,0001.56
2023-05-04 23:37:00,,0823.3,4.99,0.00,30.0,28.2,00.0,38.4,31.4,17.7,0000.0,0007.12,0002.89,0001.56
2023-05-04 23:38:00,,0823.0,4.99,0.00,30.0,28.2,00.0,38.4,31.5,17.7,0000.0,0007.09,0002.88,0001.55
2023-05-04 23:39:00,,0823.1,5.01,0.00,30.0,28.2,00.0,38.4,31.5,17.4,0000.0,0006.78,0002.80,0001.55
2023-05-04 23:40:00,,0823.2,5.01,0.00,30.0,28.2,00.0,38.4,31.4,17.3,0000.0,0006.73,0002.76,0001.54
2023-05-04 23:41:00,,0823.1,5.00,0.00,30.0,28.2,00.0,38.4,31.5,17.3,0000.0,0006.55,0002.70,0001.52
2023-05-04 23:42:00,,0823.0,4.99,0.00,30.0,28.2,00.0,38.4,31.5,17.4,0000.0,0006.27,0002.62,0001.51
2023-05-04 23:43:00,,0822.8,4.99,0.00,30.0,28.2,00.0,38.4,31.5,17.3,0000.0,0006.17,0002.59,0001.49
2023-05-04 23:44:00,,0822.8,5.01,0.00,30.0,28.2,00.0,38.4,31.5,17.3,0000.0,0006.10,0002.56,0001.45
2023-05-04 23:45:00,,0823.0,5.00,0.00,30.0,28.2,00.0,38.4,31.5,17.2,0000.0,0005.64,0002.48,0001.41
2023-05-04 23:46:00,,0823.2,5.00,0.00,30.0,28.2,00.0,38.4,31.5,17.0,0000.0,0005.80,0002.35,0001.37
2023-05-04 23:47:00,,0822.9,5.01,0.00,30.0,28.2,00.0,38.4,31.5,17.0,0000.0,0005.58,0002.27,0001.35
2023-05-04 23:48:00,,0823.0,5.01,0.00,30.0,28.2,00.0,38.4,31.4,16.9,0000.0,0005.19,0002.14,0001.34
2023-05-04 23:49:00,,0823.0,5.00,0.00,30.0,28.3,00.0,38.4,31.5,17.0,0000.0,0005.27,0002.17,0001.33
2023-05-04 23:50:00,,0822.9,5.00,0.00,30.0,28.3,00.0,38.4,31.5,17.1,0000.0,0006.17,0002.24,0001.32
2023-05-04 23:51:00,,0822.9,5.00,0.00,30.0,28.3,00.0,38.4,31.5,17.1,0000.0,0007.40,0002.26,0001.32
2023-05-04 23:52:00,,0823.0,5.01,0.00,30.0,28.3,00.0,38.4,31.5,16.9,0000.0,0007.53,0002.34,0001.33
2023-05-04 23:53:00,,0823.0,5.00,0.00,30.0,28.3,00.0,38.4,31.5,17.1,0000.0,0007.64,0002.43,0001.35
2023-05-04 23:54:00,,0823.0,5.00,0.00,30.0,28.4,00.0,38.4,31.5,17.0,0000.0,0007.67,0002.46,0001.38
2023-05-04 23:55:00,,0823.0,5.01,0.00,30.0,28.4,00.0,38.4,31.5,16.8,0000.0,0007.63,0002.46,0001.38
2023-05-04 23:56:00,,0823.1,4.98,0.00,30.0,28.4,00.0,38.4,31.5,16.5,0000.0,0007.20,0002.51,0001.39
2023-05-04 23:57:00,,0823.0,5.00,0.00,30.0,28.5,00.0,38.4,31.5,16.8,0000.0,0006.79,0002.54,0001.41
2023-05-04 23:58:00,,0823.1,5.01,0.00,30.1,28.5,00.0,38.4,31.5,16.3,0000.0,0006.87,0002.52,0001.41
2023-05-04 23:59:00,,0823.1,5.01,0.00,30.1,28.5,00.0,38.4,31.5,16.0,0000.0,0007.02,0002.49,0001.40
